Location: West Chester
(39.9610°N, 75.6060°W)
Time: 19:56:36
(UTC-04:00)

ARIANE 6 FM1 Upper Stage - Pass Details

Date: 21 September 2024
Orbit: 563 x 594 km, 62.0° (Epoch: 11 October)

Event Time Altitude Azimuth Distance (km) Brightness Sun altitude
Rises 20:40:42 0° 225° (SW) 2,765 6.6 -19.8°
Reaches altitude 10° 20:42:57 10° 230° (SW) 1,877 5.7 -20.2°
Maximum altitude 20:47:07 56° 309° (NW) 693 3.3 -21.0°
Drops below altitude 10° 20:51:22 10° 28° (NNE) 1,910 5.3 -21.7°
Enters shadow 20:51:40 - 29° (NNE) 2,031 5.4 -21.8°
